Weather History for Salina, KS

Change the Weather History Date:

Tuesday, October 16, 2012

  Actual Average Record
Temperature  
Mean Temperature 67 °F 58 °F  
Max Temperature 80 °F 69 °F 88 °F (1958)
Min Temperature 54 °F 46 °F 24 °F (1966)
Degree Days  
Heating Degree Days 0 8  
Month to date heating degree days 138 104  
Since 1 July heating degree days 173 156  
Cooling Degree Days 2 1  
Month to date cooling degree days 5 27  
Year to date cooling degree days 2042 1639  
Growing Degree Days 18 (Base 50)    
Moisture  
Dew Point 46 °F    
Average Humidity 47    
Maximum Humidity 67    
Minimum Humidity 26    
Precipitation  
Precipitation 0.00 in 0.08 in 2.93 in (1968)
Month to date precipitation 0.95 1.31  
Year to date precipitation 17.34 28.35  
Sea Level Pressure  
Sea Level Pressure 29.60 in    
Wind  
Wind Speed 7 mph (SSW)    
Max Wind Speed 15 mph    
Max Gust Speed 20 mph    
Visibility 10 miles    
Events      
T = Trace of Precipitation, MM = Missing Value Source: NWS Daily Summary

Daily Weather History Graph

Daily Weather History Graph

Search for Another Location

Airport:

Trip Planner

Search our weather history database for the weather conditions in past years. The results will help you decide how hot, cold, wet, or windy it might be!

Date:

Astronomy

Oct. 16, 2012 Rise Set
Actual Time 7:41 AM CDT 6:49 PM CDT
Civil Twilight 7:14 AM CDT 7:16 PM CDT
Nautical Twilight 6:43 AM CDT 7:47 PM CDT
Astronomical Twilight 6:12 AM CDT 8:18 PM CDT
Moon 9:04 AM CDT (10/16) 7:37 PM CDT (10/16)
Length of Visible Light 12h 02m
Length of Day
11h 08m
New Moon, 2% of the Moon is Illuminated
Oct 16
New Moon
Oct 21
First Quarter
Oct 29
Full
Nov 6
Last Quarter
Nov 13
New

Hourly Weather History & Observations

Time (CDT) Temp. Dew Point Humidity Pressure Visibility Wind Dir Wind Speed Gust Speed Precip Events Conditions
12:53 AM 64.9 °F 46.9 °F 52% 29.71 in 10.0 mi South 13.8 mph - N/A   Clear
1:53 AM 63.0 °F 46.0 °F 54% 29.69 in 10.0 mi South 11.5 mph - N/A   Clear
2:53 AM 63.0 °F 45.0 °F 52% 29.67 in 10.0 mi SSW 12.7 mph - N/A   Clear
3:53 AM 61.0 °F 44.1 °F 54% 29.66 in 10.0 mi SSW 9.2 mph - N/A   Clear
4:53 AM 60.1 °F 44.1 °F 55% 29.66 in 10.0 mi SSW 10.4 mph - N/A   Clear
5:53 AM 61.0 °F 43.0 °F 52% 29.68 in 10.0 mi Variable 4.6 mph - N/A   Clear
6:53 AM 57.2 °F 42.8 °F 59% 29.71 in 10.0 mi SSW 9.2 mph - N/A   Clear
7:53 AM 55.0 °F 44.1 °F 67% 29.68 in 10.0 mi South 5.8 mph - N/A   Clear
8:53 AM 60.1 °F 44.1 °F 55% 29.69 in 10.0 mi SW 9.2 mph - N/A   Clear
9:53 AM 63.0 °F 44.1 °F 50% 29.70 in 10.0 mi WSW 11.5 mph - N/A   Clear
10:53 AM 69.1 °F 44.1 °F 40% 29.68 in 10.0 mi WSW 9.2 mph - N/A   Clear
11:53 AM 72.0 °F 43.0 °F 35% 29.67 in 10.0 mi NNW 6.9 mph - N/A   Clear
12:53 PM 75.0 °F 44.1 °F 33% 29.65 in 10.0 mi NW 4.6 mph - N/A   Clear
1:53 PM 75.9 °F 44.1 °F 32% 29.60 in 10.0 mi SSW 4.6 mph - N/A   Clear
2:53 PM 78.1 °F 44.1 °F 30% 29.57 in 10.0 mi Calm Calm - N/A   Clear
3:53 PM 80.1 °F 43.0 °F 27% 29.54 in 10.0 mi WNW 5.8 mph - N/A   Clear
4:53 PM 80.1 °F 42.1 °F 26% 29.52 in 10.0 mi SW 4.6 mph - N/A   Clear
5:53 PM 77.0 °F 48.0 °F 36% 29.50 in 10.0 mi SSW 5.8 mph - N/A   Clear
6:53 PM 72.0 °F 46.9 °F 41% 29.49 in 10.0 mi Calm Calm - N/A   Clear
7:53 PM 66.0 °F 48.9 °F 54% 29.49 in 10.0 mi SE 3.5 mph - N/A   Clear
8:53 PM 66.0 °F 48.9 °F 54% 29.50 in 10.0 mi SSW 4.6 mph - N/A   Clear
9:53 PM 63.0 °F 50.0 °F 63% 29.47 in 10.0 mi SSE 4.6 mph - N/A   Clear
10:53 PM 62.1 °F 51.1 °F 67% 29.46 in 10.0 mi South 5.8 mph - N/A   Clear
11:53 PM 68.0 °F 54.0 °F 61% 29.44 in 10.0 mi South 12.7 mph - N/A   Clear